Location: Cicognara
(44.9500°N, 10.4667°E)
Time: 23:42:28
(UTC+00:00)

USA 267 - Pass Details

Date: 20 June 2021
Orbit: 1102 x 1106 km, 123.0° (Epoch: 21 July)

Event Time Altitude Azimuth Distance (km) Brightness Sun altitude
Exits shadow 22:46:54 11° 113° (ESE) 2,885 5.2 -21.2°
Maximum altitude 22:53:11 68° 33° (NNE) 1,178 3.5 -21.3°
Drops below altitude 10° 22:59:41 10° 312° (NW) 2,967 6.1 -21.5°
Sets 23:02:10 0° 310° (NW) 3,928 6.8 -21.5°
